WetterOnline ( https://www.wetteronline.de )

Wetter aktuell Rheinstetten

Aktuelles Wetter: Rheinstetten (116m)

6-stündlich | Neueste Meldungen
Ortszeit Temperatur Wetter
Do, 29.09. 2:00 6.9° C leicht bewölkt
Mi, 28.09. 20:00 9.6° C bewölkt
Mi, 28.09. 14:00 13.5° C leicht bewölkt
Mi, 28.09. 8:00 9.9° C leichter Regen
Mi, 28.09. 2:00 10.7° C Regen
Di, 27.09. 20:00 9.8° C leicht bewölkt
Di, 27.09. 14:00 9.0° C Regen
Di, 27.09. 8:00 9.9° C bedeckt
Ortszeit Temperatur Wetter
Do, 29.09. 6:30 5.8° C wolkig
Do, 29.09. 6:20 5.8° C wolkig
Do, 29.09. 6:10 6.2° C bedeckt
Do, 29.09. 6:00 6.4° C wolkig
Do, 29.09. 5:50 6.4° C wolkig
Do, 29.09. 5:40 6.5° C bedeckt
Do, 29.09. 5:30 6.8° C bewölkt
Do, 29.09. 5:00 7.5° C bewölkt
Do, 29.09. 4:30 7.5° C wolkig
Do, 29.09. 4:00 7.0° C wolkig
Do, 29.09. 3:30 6.6° C bedeckt
Ortszeit Relative Feuchte Sichtweite
Do, 29.09. 2:00 95% 30 km
Mi, 28.09. 20:00 90% 60 km
Mi, 28.09. 14:00 71% 50 km
Mi, 28.09. 8:00 95% 11 km
Mi, 28.09. 2:00 87% 60 km
Di, 27.09. 20:00 82% 55 km
Di, 27.09. 14:00 87% 7 km
Di, 27.09. 8:00 89% 35 km
Ortszeit Relative Feuchte Sichtweite
Do, 29.09. 6:30 95% 20 km
Do, 29.09. 6:20 95% -
Do, 29.09. 6:10 96% -
Do, 29.09. 6:00 97% 19 km
Do, 29.09. 5:50 97% -
Do, 29.09. 5:40 95% -
Do, 29.09. 5:30 95% 35 km
Do, 29.09. 5:00 95% 26 km
Do, 29.09. 4:30 94% 35 km
Do, 29.09. 4:00 96% 30 km
Do, 29.09. 3:30 95% 30 km
Ortszeit Niederschlagsmenge Niederschlagsart
Do, 29.09. 2:00 0.0 l/m2 in 6 Std. -
Mi, 28.09. 20:00 0.6 l/m2 in 12 Std. Regen
Mi, 28.09. 14:00 0.1 l/m2 in 6 Std. Regen
Mi, 28.09. 8:00 10 l/m2 in 12 Std. Regen
Mi, 28.09. 2:00 0.1 l/m2 in 6 Std. Regen
Di, 27.09. 20:00 7 l/m2 in 12 Std. Regen
Di, 27.09. 14:00 6 l/m2 in 6 Std. Regen
Di, 27.09. 8:00 5 l/m2 in 12 Std. Regen
Ortszeit Niederschlagsmenge Niederschlagsart
Do, 29.09. 6:30 0.0 l/m2 in 1 Std. -
Do, 29.09. 6:20 keine Meldung -
Do, 29.09. 6:10 keine Meldung -
Do, 29.09. 6:00 0.0 l/m2 in 1 Std. -
Do, 29.09. 5:50 keine Meldung -
Do, 29.09. 5:40 keine Meldung -
Do, 29.09. 5:30 0.0 l/m2 in 1 Std. -
Do, 29.09. 5:00 0.0 l/m2 in 1 Std. -
Do, 29.09. 4:30 0.0 l/m2 in 1 Std. -
Do, 29.09. 4:00 0.0 l/m2 in 1 Std. -
Do, 29.09. 3:30 0.0 l/m2 in 1 Std. -
Ortszeit Stärke Spitze Richtung
km/h Bft. km/h Grad Sektor
Do, 29.09. 2:00 6 1 17 230° SW
Mi, 28.09. 20:00 6 1 31 150° SO
Mi, 28.09. 14:00 19 3 30 220° SW
Mi, 28.09. 8:00 14 3 40 230° SW
Mi, 28.09. 2:00 22 4 31 210° SW
Di, 27.09. 20:00 14 3 40 230° SW
Di, 27.09. 14:00 24 4 43 240° SW
Di, 27.09. 8:00 20 4 43 230° SW
Ortszeit Stärke Spitze Richtung
km/h Bft. km/h Grad Sektor
Do, 29.09. 6:30 0 0 4 - -
Do, 29.09. 6:20 0 0 - 40° NO
Do, 29.09. 6:10 4 1 - 30° NO
Do, 29.09. 6:00 0 0 11 - -
Do, 29.09. 5:50 0 0 - 100° O
Do, 29.09. 5:40 0 0 - 250° W
Do, 29.09. 5:30 0 0 11 - -
Do, 29.09. 5:00 7 2 11 170° S
Do, 29.09. 4:30 7 2 7 230° SW
Do, 29.09. 4:00 0 0 7 - -
Do, 29.09. 3:30 4 1 7 240° SW
Ortszeit Untergrenze Bedeckung Gattung
total tief tief mittel hoch
Do, 29.09. 2:00 1320 m 2/8 2/8 - - -
Mi, 28.09. 20:00 2100 m 8/8 5/8 - - -
Mi, 28.09. 14:00 720 m 7/8 1/8 - - -
Mi, 28.09. 8:00 1080 m 7/8 7/8 - - -
Mi, 28.09. 2:00 1470 m 8/8 8/8 - - -
Di, 27.09. 20:00 1800 m 2/8 2/8 - - -
Di, 27.09. 14:00 1260 m 7/8 7/8 - - -
Di, 27.09. 8:00 870 m 8/8 8/8 - - -
Ortszeit Bedeckungsgrad in Achtel und Wolkenuntergrenze
Do, 29.09. 6:30 2(2700m) 8(5400m) 8(7200m)
Do, 29.09. 6:20 2(2700m) 8(5400m) 8(7200m)
Do, 29.09. 6:10 8
Do, 29.09. 6:00 2(2700m) 8(5400m)
Do, 29.09. 5:50 2(2700m) 8(5400m)
Do, 29.09. 5:40 8
Do, 29.09. 5:30 2(810m) 6(2700m) 7(5700m)
Do, 29.09. 5:00 2(810m) 5(1410m) 8(6000m)
Do, 29.09. 4:30 4(780m) 7(6300m) 7(6900m)
Do, 29.09. 4:00 1(1230m) 5(2100m) 7(6300m)
Do, 29.09. 3:30 8(2100m)
Ortszeit Luftdruck NN (hPa) Tendenz (hPa in 3 Std.)
Do, 29.09. 2:00 1002 0,0
Mi, 28.09. 20:00 1001 + 0,9
Mi, 28.09. 14:00 1000 + 0,2
Mi, 28.09. 8:00 998 + 0,6
Mi, 28.09. 2:00 999 - 3,1
Di, 27.09. 20:00 1003 + 1,0
Di, 27.09. 14:00 1003 - 0,4
Di, 27.09. 8:00 1002 + 1,6
Ortszeit Luftdruck NN (hPa) Tendenz (hPa in 3 Std.)
Do, 29.09. 6:30 1002 + 0,1
Do, 29.09. 6:20 1002 keine Meldung
Do, 29.09. 6:10 1002 keine Meldung
Do, 29.09. 6:00 1002 - 0,2
Do, 29.09. 5:50 1002 keine Meldung
Do, 29.09. 5:40 1002 keine Meldung
Do, 29.09. 5:30 1002 - 0,3
Do, 29.09. 5:00 1002 - 0,3
Do, 29.09. 4:30 1002 - 0,1
Do, 29.09. 4:00 1002 - 0,2
Do, 29.09. 3:30 1002 - 0,2
Ortszeit Schneehöhe (cm)
Do, 29.09. 2:00 0
Mi, 28.09. 20:00 0
Mi, 28.09. 14:00 0
Mi, 28.09. 8:00 0
Mi, 28.09. 2:00 0
Di, 27.09. 20:00 0
Di, 27.09. 14:00 0
Di, 27.09. 8:00 0
Ortszeit Schneehöhe (cm)
Do, 29.09. 6:30 0
Do, 29.09. 6:20 0
Do, 29.09. 6:10 0
Do, 29.09. 6:00 0
Do, 29.09. 5:50 0
Do, 29.09. 5:40 0
Do, 29.09. 5:30 0
Do, 29.09. 5:00 0
Do, 29.09. 4:30 0
Do, 29.09. 4:00 0
Do, 29.09. 3:30 0
Link zu dieser Seite / Seite empfehlen

Das Wetter in ...